STARLINK-36647, 67824

Orbit data source: Space-Track

STARLINK-36647, 67824 is a payload satellite owned by SpaceX/Seattle (US) in LEO that was launched on Mon, 16 Feb 2026 UTC via an FALCON 9 launch vehicle from the Air Force Eastern Test Range (AFETR). Payload-class satellites include a variety of spacecraft equipped with specific instruments for various scientific and technological missions. These include communications satellites like Starlink; space stations such as the ISS; scientific satellites like the Hubble; Earth observation satellites from companies like Planet Labs, Umbra, and HawkEye 360; GPS; miniature CubeSats for education and research; and military/defense satellites.

Loading next visibility...
Identifier
67824, 2026-033D
Orbit
LEO
Country
Flag of USUS
Related business
Manufacturer
SpaceX/Seattle
Mission
Operational Commercial Communications
Bus & Motor
STARLINK V2MO, Unknown motor
Mass
575 kg wet, ~530 kg dry
Launch date (UTC)
2026-02-16 (4 months ago)
Launch vehicle
FALCON 9
Launch site
Air Force Eastern Test Range (AFETR)
Object type
Payload
Rocket body
Debris
Shape & HBR
Box + 2 Pan, 17.7 m
Radar Cross Section
36.964 m², Large (>1 m²)

Expand to show TLE details & history
Last TLE update: 22 hours ago

TLE from 22 hours ago
0 STARLINK-36647
1 67824U 26033D   26171.07272444  .00009899  00000-0  36858-3 0  9996
2 67824  43.0004  48.7263 0001227 271.9461  88.1250 15.27595835 20334
Epoch: 2026-06-20T01:44Z
TLE epoch observation values (Epoch: 2026-06-20T01:44:43.391Z)
Latitude
-0.00003°
Longitude
114.25288°
Altitude
482.75 km
Speed
7.626 km/s
True Right ascension
03h 14m 54s
True Declination
0° 00' 00"
Sunlit
Object was in daylight at epoch
Visualization orbit readout
Latitude
Unknown
Longitude
Unknown
Altitude
Unknown
Speed
Unknown
Apparent Right ascension
Unknown
Apparent Declination
Unknown
Sunlit
N/A
Visualization observer readout
Local Sidereal Time
10:20:33
Azimuth
Unknown
Elevation
Unknown
Doppler factor
Unknown
Orbital elements
Apogee altitude
485.789 km
Perigee altitude
484.105 km
Semi-major axis
6,863.084 km
Eccentricity
0.00012
Inclination
43.0004°
RAAN
48.7263°
Arg. of periapsis
271.9461°
True anomaly
88.13905°
Mean anomaly
88.125°
Eccentric anomaly
88.13203°
Mean motion
3.81737 °/min
Orbital period
94.31 mins
BSTAR
0.00036858
Loading maneuver chart data...
Computing Atmospheric mass density...
Loading historical data...
Loading historical data...
Loading historical data...
Loading historical data...
Loading historical data...
Loading historical data...
Loading historical data...

Documentation

Showing up to 5 results
|